This demonstration page uses our WeatherBlox Daily Observations layout. Learn more.

Left ArrowRight Arrow

Hourly Observations for September 28, 2021

Temp ( °F °C ) Dew Point ( °F °C ) Humidity (%) Winds ( mph kmh ) Pressure ( in mb ) Visibility ( mi km ) Precip ( " mm )
12:15 am 00:15 Clear 72 22 63 17 73 73 SW 12 19 29.89 1012 10 16 N/A
12:35 am 00:35 Clear 72 22 63 17 73 73 SW 9 15 29.89 1012 10 16 N/A
12:55 am 00:55 Clear 72 22 63 17 73 73 SW 12 19 29.89 1012 10 16 N/A
1:15 am 01:15 Clear 72 22 63 17 73 73 SW 13 20 29.88 1012 10 16 N/A
1:35 am 01:35 Clear 72 22 63 17 73 73 SW 14 22 29.88 1012 10 16 N/A
1:55 am 01:55 Clear 70 21 63 17 78 78 SW 14 22 29.89 1012 10 16 N/A
2:15 am 02:15 Clear 70 21 63 17 78 78 SW 10 17 29.89 1012 10 16 N/A
2:35 am 02:35 Clear 70 21 63 17 78 78 SW 10 17 29.89 1012 10 16 N/A
2:55 am 02:55 Clear 70 21 63 17 78 78 SW 8 13 29.89 1012 10 16 N/A
3:15 am 03:15 Clear 68 20 63 17 83 83 SSW 8 13 29.89 1012 10 16 N/A
3:35 am 03:35 Clear 68 20 63 17 83 83 SSW 7 11 29.89 1012 10 16 N/A
3:55 am 03:55 Clear 66 19 63 17 88 88 SSW 6 9 29.89 1012 10 16 N/A
4:15 am 04:15 Clear 66 19 63 17 88 88 SSW 3 6 29.89 1012 10 16 N/A
4:35 am 04:35 Clear 63 17 63 17 100 100 S 3 6 29.90 1012 10 16 N/A
4:55 am 04:55 Clear 63 17 63 17 100 100 S 5 7 29.90 1012 10 16 N/A
5:15 am 05:15 Clear 63 17 63 17 100 100 SSE 3 6 29.91 1013 10 16 N/A
5:35 am 05:35 Clear 61 16 61 16 100 100 S 5 7 29.91 1013 10 16 N/A
5:55 am 05:55 Clear 63 17 63 17 100 100 S 3 6 29.92 1013 10 16 N/A
6:15 am 06:15 Clear 61 16 61 16 100 100 S 3 6 29.92 1013 10 16 N/A
6:35 am 06:35 Clear 61 16 61 16 100 100 SSW 5 7 29.93 1014 10 16 N/A
6:55 am 06:55 Clear 61 16 61 16 100 100 S 3 6 29.93 1014 10 16 N/A
7:15 am 07:15 Clear 61 16 61 16 100 100 N N/A 29.93 1014 10 16 N/A
7:35 am 07:35 Clear 59 15 59 15 100 100 N N/A 29.93 1014 10 16 N/A
7:55 am 07:55 Sunny 57 14 57 14 100 100 N N/A 29.96 1014 10 16 N/A
8:15 am 08:15 Sunny 57 14 57 14 100 100 N N/A 29.96 1014 10 16 N/A
8:35 am 08:35 Sunny 61 16 61 16 100 100 S 3 6 29.96 1015 10 16 N/A
8:55 am 08:55 Sunny 64 18 64 18 100 100 N N/A 29.94 1014 10 16 N/A
9:15 am 09:15 Sunny 66 19 64 18 94 94 SW 3 6 29.95 1014 10 16 N/A
9:35 am 09:35 Sunny 68 20 63 17 83 83 WSW 7 11 29.95 1014 10 16 N/A
9:55 am 09:55 Sunny 70 21 64 18 83 83 W 7 11 29.95 1014 10 16 N/A
10:15 am 10:15 Sunny 70 21 63 17 78 78 W 6 9 29.96 1014 10 16 N/A
10:35 am 10:35 Sunny 70 21 64 18 83 83 W 6 9 29.96 1014 10 16 N/A
10:55 am 10:55 Sunny 72 22 64 18 78 78 WNW 5 7 29.95 1014 10 16 N/A
11:15 am 11:15 Sunny 72 22 64 18 78 78 W 5 7 29.95 1014 10 16 N/A
11:35 am 11:35 Sunny 73 23 64 18 74 74 WNW 3 6 29.95 1014 10 16 N/A
11:55 am 11:55 Sunny 75 24 64 18 69 69 WSW 5 7 29.95 1014 10 16 N/A
12:15 pm 12:15 Sunny 75 24 64 18 69 69 W 5 7 29.95 1014 10 16 N/A
12:35 pm 12:35 Sunny 77 25 64 18 65 65 NW 6 9 29.95 1014 10 16 N/A
12:55 pm 12:55 Sunny 77 25 64 18 65 65 N N/A 29.94 1014 10 16 N/A
1:15 pm 13:15 Sunny 77 25 64 18 65 65 W 5 7 29.94 1014 10 16 N/A
1:35 pm 13:35 Sunny 79 26 64 18 61 61 NW 5 7 29.94 1014 10 16 N/A
1:55 pm 13:55 Sunny 79 26 63 17 58 58 N 5 7 29.94 1014 10 16 N/A
2:15 pm 14:15 Sunny 79 26 64 18 61 61 NW 6 9 29.94 1014 10 16 N/A
2:35 pm 14:35 Sunny 81 27 64 18 58 58 WNW 8 13 29.93 1013 10 16 N/A
2:55 pm 14:55 Sunny 81 27 64 18 58 58 WNW 8 13 29.92 1013 10 16 N/A
3:15 pm 15:15 Sunny 81 27 64 18 58 58 W 5 7 29.92 1013 10 16 N/A
3:35 pm 15:35 Sunny 81 27 64 18 58 58 NW 3 6 29.91 1013 10 16 N/A
3:55 pm 15:55 Sunny 82 28 64 18 55 55 NE 5 7 29.90 1013 10 16 N/A
4:15 pm 16:15 Sunny 81 27 64 18 58 58 N 7 11 29.91 1013 10 16 N/A
4:35 pm 16:35 Sunny 81 27 64 18 58 58 N 5 7 29.91 1013 10 16 N/A
4:55 pm 16:55 Sunny 81 27 64 18 58 58 NE 5 7 29.91 1013 10 16 N/A
5:15 pm 17:15 Sunny 81 27 64 18 58 58 N 8 13 29.90 1012 10 16 N/A
5:35 pm 17:35 Sunny 81 27 64 18 58 58 N 7 11 29.90 1012 10 16 N/A
5:55 pm 17:55 Sunny 79 26 64 18 61 61 NNE 7 11 29.92 1013 10 16 N/A
6:15 pm 18:15 Sunny 79 26 64 18 61 61 NNE 6 9 29.92 1013 10 16 N/A
6:35 pm 18:35 Sunny 77 25 64 18 65 65 NNE 8 13 29.92 1013 10 16 N/A
6:55 pm 18:55 Sunny 75 24 64 18 69 69 NNE 7 11 29.93 1013 10 16 N/A
7:15 pm 19:15 Sunny 73 23 64 18 74 74 NNE 6 9 29.94 1014 10 16 N/A
7:35 pm 19:35 Clear 72 22 64 18 78 78 NNE 6 9 29.94 1014 10 16 N/A
7:55 pm 19:55 Clear 70 21 64 18 83 83 NNE 6 9 29.95 1014 10 16 N/A
8:15 pm 20:15 Clear 66 19 64 18 94 94 NNE 5 7 29.95 1014 10 16 N/A
8:35 pm 20:35 Clear 66 19 64 18 94 94 NNE 5 7 29.96 1015 10 16 N/A
8:55 pm 20:55 Clear 64 18 64 18 100 100 NNE 3 6 29.96 1015 10 16 N/A
9:15 pm 21:15 Clear 63 17 63 17 100 100 N N/A 29.98 1015 10 16 N/A
9:35 pm 21:35 Clear 64 18 64 18 100 100 N N/A 29.97 1015 10 16 N/A
9:55 pm 21:55 Clear 64 18 64 18 100 100 NE 3 6 29.98 1015 10 16 N/A
10:15 pm 22:15 Clear 63 17 63 17 100 100 N N/A 29.99 1015 10 16 N/A
10:35 pm 22:35 Clear 63 17 63 17 100 100 N N/A 29.99 1015 10 16 N/A
10:55 pm 22:55 Clear 63 17 63 17 100 100 N N/A 29.99 1015 10 16 N/A
11:15 pm 23:15 Clear 63 17 63 17 100 100 N N/A 29.99 1015 10 16 N/A
11:35 pm 23:35 Clear 61 16 61 16 100 100 N N/A 29.99 1016 10 16 N/A
11:55 pm 23:55 Clear 59 15 59 15 100 100 N N/A 29.99 1016 10 16 N/A

Powered by AerisWeather